����������;��������(kWh)
2016-07-25 00:00;76
2016-07-25 00:15;85,25
2016-07-25 00:30;86,05
2016-07-25 00:45;83,75
2016-07-25 01:00;80,2
2016-07-25 01:15;80,45
2016-07-25 01:30;74,85
2016-07-25 01:45;76,55
2016-07-25 02:00;80,7
2016-07-25 02:15;76
2016-07-25 02:30;75,65
2016-07-25 02:45;78,7
2016-07-25 03:00;77,35
2016-07-25 03:15;74,45
2016-07-25 03:30;77,45
2016-07-25 03:45;78,1
2016-07-25 04:00;75,3
2016-07-25 04:15;71,9
2016-07-25 04:30;76,15
2016-07-25 04:45;77,3
2016-07-25 05:00;75,45
2016-07-25 05:15;73,25
2016-07-25 05:30;77,8
2016-07-25 05:45;74,8
2016-07-25 06:00;74,05
2016-07-25 06:15;73,7
2016-07-25 06:30;72,75
2016-07-25 06:45;65,4
2016-07-25 07:00;70,65
2016-07-25 07:15;79,35
2016-07-25 07:30;80,25
2016-07-25 07:45;151,2
2016-07-25 08:00;131,25
2016-07-25 08:15;113,5
2016-07-25 08:30;120,25
2016-07-25 08:45;115,7
2016-07-25 09:00;138
2016-07-25 09:15;142,2
2016-07-25 09:30;145,2
2016-07-25 09:45;165,15
2016-07-25 10:00;195,85
2016-07-25 10:15;193,85
2016-07-25 10:30;203,65
2016-07-25 10:45;207,2
2016-07-25 11:00;205,55
2016-07-25 11:15;211,35
2016-07-25 11:30;230,9
2016-07-25 11:45;268
2016-07-25 12:00;239
2016-07-25 12:15;221,95
2016-07-25 12:30;225,7
2016-07-25 12:45;241,6
2016-07-25 13:00;232,25
2016-07-25 13:15;236,7
2016-07-25 13:30;228,9
2016-07-25 13:45;208,1
2016-07-25 14:00;210,9
2016-07-25 14:15;206,1
2016-07-25 14:30;196,2
2016-07-25 14:45;199,7
2016-07-25 15:00;192,5
2016-07-25 15:15;168,45
2016-07-25 15:30;170,35
2016-07-25 15:45;159,6
2016-07-25 16:00;153,7
2016-07-25 16:15;151,95
2016-07-25 16:30;145,95
2016-07-25 16:45;141,15
2016-07-25 17:00;144
2016-07-25 17:15;144,3
2016-07-25 17:30;138,8
2016-07-25 17:45;138,45
2016-07-25 18:00;137,5
2016-07-25 18:15;126,15
2016-07-25 18:30;124,85
2016-07-25 18:45;126,45
2016-07-25 19:00;125,05
2016-07-25 19:15;117,95
2016-07-25 19:30;112,55
2016-07-25 19:45;110,05
2016-07-25 20:00;105,9
2016-07-25 20:15;101,55
2016-07-25 20:30;101,6
2016-07-25 20:45;100,15
2016-07-25 21:00;102,9
2016-07-25 21:15;99,25
2016-07-25 21:30;100,9
2016-07-25 21:45;100,1
2016-07-25 22:00;100,95
2016-07-25 22:15;100,1
2016-07-25 22:30;98,95
2016-07-25 22:45;98,2
2016-07-25 23:00;98,55
2016-07-25 23:15;94,65
2016-07-25 23:30;94
2016-07-25 23:45;90,35
2016-07-26 00:00;89,75
2016-07-26 00:15;92
2016-07-26 00:30;88,55
2016-07-26 00:45;86,65
2016-07-26 01:00;85,85
2016-07-26 01:15;85,7
2016-07-26 01:30;86,85
2016-07-26 01:45;86,3
2016-07-26 02:00;83,5
2016-07-26 02:15;76,7
2016-07-26 02:30;77,9
2016-07-26 02:45;77,85
2016-07-26 03:00;76,85
2016-07-26 03:15;78,5
2016-07-26 03:30;76,4
2016-07-26 03:45;78,55
2016-07-26 04:00;75,15
2016-07-26 04:15;77,7
2016-07-26 04:30;75,9
2016-07-26 04:45;76,7
2016-07-26 05:00;75,9
2016-07-26 05:15;77,35
2016-07-26 05:30;75,95
2016-07-26 05:45;77,55
2016-07-26 06:00;81,3
2016-07-26 06:15;86,65
2016-07-26 06:30;74,8
2016-07-26 06:45;74,2
2016-07-26 07:00;71,55
2016-07-26 07:15;81,45
2016-07-26 07:30;83,95
2016-07-26 07:45;142,95
2016-07-26 08:00;97,35
2016-07-26 08:15;108,85
2016-07-26 08:30;112,9
2016-07-26 08:45;111,5
2016-07-26 09:00;135,05
2016-07-26 09:15;160,15
2016-07-26 09:30;151,8
2016-07-26 09:45;161,6
2016-07-26 10:00;169,5
2016-07-26 10:15;178,9
2016-07-26 10:30;181,75
2016-07-26 10:45;188,1
2016-07-26 11:00;192,8
2016-07-26 11:15;196,45
2016-07-26 11:30;189,8
2016-07-26 11:45;204,6
2016-07-26 12:00;208,7
2016-07-26 12:15;200,1
2016-07-26 12:30;205,15
2016-07-26 12:45;214,5
2016-07-26 13:00;201,55
2016-07-26 13:15;198,8
2016-07-26 13:30;212
2016-07-26 13:45;203,4
2016-07-26 14:00;188,9
2016-07-26 14:15;202,5
2016-07-26 14:30;223,4
2016-07-26 14:45;215,55
2016-07-26 15:00;163,65
2016-07-26 15:15;167,6
2016-07-26 15:30;160,7
2016-07-26 15:45;155,8
2016-07-26 16:00;150,25
2016-07-26 16:15;146,9
2016-07-26 16:30;131,7
2016-07-26 16:45;135,35
2016-07-26 17:00;135
2016-07-26 17:15;123,7
2016-07-26 17:30;125
2016-07-26 17:45;130
2016-07-26 18:00;121,75
2016-07-26 18:15;125,5
2016-07-26 18:30;117,7
2016-07-26 18:45;117,95
2016-07-26 19:00;118,15
2016-07-26 19:15;103,85
2016-07-26 19:30;102,7
2016-07-26 19:45;101,5
2016-07-26 20:00;98
2016-07-26 20:15;98
2016-07-26 20:30;98,25
2016-07-26 20:45;102,65
2016-07-26 21:00;101,7
2016-07-26 21:15;100,15
2016-07-26 21:30;100,65
2016-07-26 21:45;100,5
2016-07-26 22:00;100,9
2016-07-26 22:15;96,35
2016-07-26 22:30;103,6
2016-07-26 22:45;101,7
2016-07-26 23:00;110,35
2016-07-26 23:15;97,45
2016-07-26 23:30;93,1
2016-07-26 23:45;95,1
2016-07-27 00:00;81,25
2016-07-27 00:15;79,9
2016-07-27 00:30;81,45
2016-07-27 00:45;80,65
2016-07-27 01:00;79,4
2016-07-27 01:15;77,65
2016-07-27 01:30;77,65
2016-07-27 01:45;78
2016-07-27 02:00;76,95
2016-07-27 02:15;75,6
2016-07-27 02:30;76,75
2016-07-27 02:45;75,6
2016-07-27 03:00;76,8
2016-07-27 03:15;75,4
2016-07-27 03:30;77,8
2016-07-27 03:45;75,4
2016-07-27 04:00;77,15
2016-07-27 04:15;75,35
2016-07-27 04:30;76,05
2016-07-27 04:45;75,65
2016-07-27 05:00;76,1
2016-07-27 05:15;74,6
2016-07-27 05:30;75,85
2016-07-27 05:45;75,05
2016-07-27 06:00;84,9
2016-07-27 06:15;85
2016-07-27 06:30;86
2016-07-27 06:45;81,3
2016-07-27 07:00;88
2016-07-27 07:15;91,4
2016-07-27 07:30;92,2
2016-07-27 07:45;151,35
2016-07-27 08:00;112,2
2016-07-27 08:15;110,9
2016-07-27 08:30;117,05
2016-07-27 08:45;128,2
2016-07-27 09:00;174,05
2016-07-27 09:15;159,5
2016-07-27 09:30;152,9
2016-07-27 09:45;173,4
2016-07-27 10:00;170,4
2016-07-27 10:15;185,85
2016-07-27 10:30;197,3
2016-07-27 10:45;211,8
2016-07-27 11:00;204
2016-07-27 11:15;214,95
2016-07-27 11:30;217,75
2016-07-27 11:45;220,8
2016-07-27 12:00;218,5
2016-07-27 12:15;228,05
2016-07-27 12:30;224,8
2016-07-27 12:45;226,55
2016-07-27 13:00;224,25
2016-07-27 13:15;218,05
2016-07-27 13:30;208,5
2016-07-27 13:45;196,1
2016-07-27 14:00;191,4
2016-07-27 14:15;210,05
2016-07-27 14:30;215,05
2016-07-27 14:45;199,1
2016-07-27 15:00;203,7
2016-07-27 15:15;178,2
2016-07-27 15:30;181,55
2016-07-27 15:45;173,2
2016-07-27 16:00;161,8
2016-07-27 16:15;150,65
2016-07-27 16:30;153,1
2016-07-27 16:45;146,9
2016-07-27 17:00;136,1
2016-07-27 17:15;135,85
2016-07-27 17:30;133,05
2016-07-27 17:45;127,4
2016-07-27 18:00;129,8
2016-07-27 18:15;132
2016-07-27 18:30;116,4
2016-07-27 18:45;114,6
2016-07-27 19:00;117,55
2016-07-27 19:15;104,55
2016-07-27 19:30;103
2016-07-27 19:45;101
2016-07-27 20:00;101,9
2016-07-27 20:15;101,95
2016-07-27 20:30;96,15
2016-07-27 20:45;93,2
2016-07-27 21:00;93,75
2016-07-27 21:15;93,45
2016-07-27 21:30;95,3
2016-07-27 21:45;97,9
2016-07-27 22:00;96,8
2016-07-27 22:15;93,45
2016-07-27 22:30;91,45
2016-07-27 22:45;92,9
2016-07-27 23:00;97,55
2016-07-27 23:15;93,3
2016-07-27 23:30;94,25
2016-07-27 23:45;97,7
2016-07-28 00:00;81,65
2016-07-28 00:15;81,65
2016-07-28 00:30;80,65
2016-07-28 00:45;81,85
2016-07-28 01:00;81,25
2016-07-28 01:15;80,05
2016-07-28 01:30;79,5
2016-07-28 01:45;79,6
2016-07-28 02:00;78,7
2016-07-28 02:15;80,3
2016-07-28 02:30;77,1
2016-07-28 02:45;78,5
2016-07-28 03:00;75,1
2016-07-28 03:15;78,25
2016-07-28 03:30;76,65
2016-07-28 03:45;77,8
2016-07-28 04:00;77,4
2016-07-28 04:15;78,5
2016-07-28 04:30;76,6
2016-07-28 04:45;77,8
2016-07-28 05:00;76,1
2016-07-28 05:15;78,4
2016-07-28 05:30;77,85
2016-07-28 05:45;78,1
2016-07-28 06:00;87,45
2016-07-28 06:15;81,65
2016-07-28 06:30;75,4
2016-07-28 06:45;76,35
2016-07-28 07:00;88,1
2016-07-28 07:15;92,95
2016-07-28 07:30;92,7
2016-07-28 07:45;151,35
2016-07-28 08:00;112,15
2016-07-28 08:15;114,4
2016-07-28 08:30;113,25
2016-07-28 08:45;123,75
2016-07-28 09:00;132,4
2016-07-28 09:15;138,65
2016-07-28 09:30;146,65
2016-07-28 09:45;154,8
2016-07-28 10:00;162,1
2016-07-28 10:15;177,35
2016-07-28 10:30;184,1
2016-07-28 10:45;191,6
2016-07-28 11:00;186,1
2016-07-28 11:15;194,05
2016-07-28 11:30;200,35
2016-07-28 11:45;209,05
2016-07-28 12:00;204,25
2016-07-28 12:15;217,2
2016-07-28 12:30;222,05
2016-07-28 12:45;216,15
2016-07-28 13:00;215,6
2016-07-28 13:15;215,9
2016-07-28 13:30;211,9
2016-07-28 13:45;217,95
2016-07-28 14:00;220,55
2016-07-28 14:15;208
2016-07-28 14:30;207,95
2016-07-28 14:45;212,4
2016-07-28 15:00;195,05
2016-07-28 15:15;194,85
2016-07-28 15:30;200,55
2016-07-28 15:45;187,1
2016-07-28 16:00;169,55
2016-07-28 16:15;179,85
2016-07-28 16:30;159,7
2016-07-28 16:45;146,5
2016-07-28 17:00;153,1
2016-07-28 17:15;148,7
2016-07-28 17:30;140,3
2016-07-28 17:45;138,65
2016-07-28 18:00;134,35
2016-07-28 18:15;136,85
2016-07-28 18:30;123,75
2016-07-28 18:45;127,8
2016-07-28 19:00;124,55
2016-07-28 19:15;110,7
2016-07-28 19:30;118,1
2016-07-28 19:45;112,85
2016-07-28 20:00;107,05
2016-07-28 20:15;110,05
2016-07-28 20:30;100
2016-07-28 20:45;105,65
2016-07-28 21:00;102,45
2016-07-28 21:15;113,8
2016-07-28 21:30;109,85
2016-07-28 21:45;111,95
2016-07-28 22:00;106,2
2016-07-28 22:15;98,8
2016-07-28 22:30;108,5
2016-07-28 22:45;98,1
2016-07-28 23:00;103,6
2016-07-28 23:15;93,2
2016-07-28 23:30;98,6
2016-07-28 23:45;96,15
2016-07-29 00:00;91,05
2016-07-29 00:15;92,8
2016-07-29 00:30;86,4
2016-07-29 00:45;85,65
2016-07-29 01:00;88,4
2016-07-29 01:15;84,85
2016-07-29 01:30;87,8
2016-07-29 01:45;82
2016-07-29 02:00;90,15
2016-07-29 02:15;88,95
2016-07-29 02:30;81,4
2016-07-29 02:45;90,05
2016-07-29 03:00;83,05
2016-07-29 03:15;87,5
2016-07-29 03:30;84,85
2016-07-29 03:45;86,7
2016-07-29 04:00;89,5
2016-07-29 04:15;80,95
2016-07-29 04:30;89,1
2016-07-29 04:45;81,6
2016-07-29 05:00;88,25
2016-07-29 05:15;83,85
2016-07-29 05:30;82,75
2016-07-29 05:45;86,95
2016-07-29 06:00;78,6
2016-07-29 06:15;92,45
2016-07-29 06:30;80,7
2016-07-29 06:45;89,75
2016-07-29 07:00;91,05
2016-07-29 07:15;102,05
2016-07-29 07:30;96,05
2016-07-29 07:45;110,05
2016-07-29 08:00;114,1
2016-07-29 08:15;110,2
2016-07-29 08:30;129,5
2016-07-29 08:45;134,9
2016-07-29 09:00;135,65
2016-07-29 09:15;142,5
2016-07-29 09:30;146,2
2016-07-29 09:45;157,1
2016-07-29 10:00;158,5
2016-07-29 10:15;168,3
2016-07-29 10:30;178
2016-07-29 10:45;177,15
2016-07-29 11:00;181,4
2016-07-29 11:15;196,3
2016-07-29 11:30;190,7
2016-07-29 11:45;203,65
2016-07-29 12:00;211
2016-07-29 12:15;203,2
2016-07-29 12:30;215,4
2016-07-29 12:45;211,85
2016-07-29 13:00;198,7
2016-07-29 13:15;204,05
2016-07-29 13:30;203,65
2016-07-29 13:45;196,3
2016-07-29 14:00;208,05
2016-07-29 14:15;201,95
2016-07-29 14:30;192,4
2016-07-29 14:45;180
2016-07-29 15:00;165
2016-07-29 15:15;151,95
2016-07-29 15:30;152,9
2016-07-29 15:45;149,6
2016-07-29 16:00;140,85
2016-07-29 16:15;140,4
2016-07-29 16:30;134,75
2016-07-29 16:45;130,6
2016-07-29 17:00;129,7
2016-07-29 17:15;131,55
2016-07-29 17:30;128,5
2016-07-29 17:45;122,3
2016-07-29 18:00;125,55
2016-07-29 18:15;121,75
2016-07-29 18:30;113,7
2016-07-29 18:45;109,2
2016-07-29 19:00;106
2016-07-29 19:15;98,75
2016-07-29 19:30;99,85
2016-07-29 19:45;98
2016-07-29 20:00;95,2
2016-07-29 20:15;93,25
2016-07-29 20:30;92,9
2016-07-29 20:45;95,35
2016-07-29 21:00;98,05
2016-07-29 21:15;97,3
2016-07-29 21:30;95,95
2016-07-29 21:45;94,45
2016-07-29 22:00;93,9
2016-07-29 22:15;93,05
2016-07-29 22:30;94,55
2016-07-29 22:45;92,1
2016-07-29 23:00;94,9
2016-07-29 23:15;97,55
2016-07-29 23:30;98,15
2016-07-29 23:45;96,35
2016-07-30 00:00;89,5
2016-07-30 00:15;91,2
2016-07-30 00:30;89,6
2016-07-30 00:45;86,5
2016-07-30 01:00;80,8
2016-07-30 01:15;79
2016-07-30 01:30;80,5
2016-07-30 01:45;76,9
2016-07-30 02:00;80,15
2016-07-30 02:15;77,15
2016-07-30 02:30;79,65
2016-07-30 02:45;80,4
2016-07-30 03:00;77,95
2016-07-30 03:15;80,4
2016-07-30 03:30;77,9
2016-07-30 03:45;80,3
2016-07-30 04:00;77,75
2016-07-30 04:15;77,8
2016-07-30 04:30;79,15
2016-07-30 04:45;75,75
2016-07-30 05:00;77,65
2016-07-30 05:15;77,1
2016-07-30 05:30;78,25
2016-07-30 05:45;76,55
2016-07-30 06:00;77,7
2016-07-30 06:15;74,45
2016-07-30 06:30;73,8
2016-07-30 06:45;71,15
2016-07-30 07:00;70,75
2016-07-30 07:15;74,2
2016-07-30 07:30;71,3
2016-07-30 07:45;72,65
2016-07-30 08:00;72,1
2016-07-30 08:15;76,15
2016-07-30 08:30;77,6
2016-07-30 08:45;74,15
2016-07-30 09:00;75,9
2016-07-30 09:15;74,9
2016-07-30 09:30;76,45
2016-07-30 09:45;76,75
2016-07-30 10:00;77,65
2016-07-30 10:15;75,65
2016-07-30 10:30;75,9
2016-07-30 10:45;80,85
2016-07-30 11:00;79,4
2016-07-30 11:15;77,95
2016-07-30 11:30;81,45
2016-07-30 11:45;87,35
2016-07-30 12:00;88,4
2016-07-30 12:15;92,5
2016-07-30 12:30;93,9
2016-07-30 12:45;90,9
2016-07-30 13:00;96,35
2016-07-30 13:15;91,55
2016-07-30 13:30;95,05
2016-07-30 13:45;95,75
2016-07-30 14:00;94,75
2016-07-30 14:15;94,5
2016-07-30 14:30;92
2016-07-30 14:45;89,75
2016-07-30 15:00;93,75
2016-07-30 15:15;88,75
2016-07-30 15:30;88,15
2016-07-30 15:45;93,5
2016-07-30 16:00;92,75
2016-07-30 16:15;93,9
2016-07-30 16:30;87,6
2016-07-30 16:45;84,7
2016-07-30 17:00;90
2016-07-30 17:15;92,1
2016-07-30 17:30;88,05
2016-07-30 17:45;90,75
2016-07-30 18:00;89,5
2016-07-30 18:15;87,6
2016-07-30 18:30;90,2
2016-07-30 18:45;91,15
2016-07-30 19:00;86,5
2016-07-30 19:15;88,45
2016-07-30 19:30;88,35
2016-07-30 19:45;85,9
2016-07-30 20:00;88,15
2016-07-30 20:15;85,5
2016-07-30 20:30;82,8
2016-07-30 20:45;86,35
2016-07-30 21:00;89,6
2016-07-30 21:15;85,85
2016-07-30 21:30;88,8
2016-07-30 21:45;85,6
2016-07-30 22:00;87,95
2016-07-30 22:15;86,9
2016-07-30 22:30;86,9
2016-07-30 22:45;88,75
2016-07-30 23:00;87,9
2016-07-30 23:15;85,6
2016-07-30 23:30;85,35
2016-07-30 23:45;82,45
2016-07-31 00:00;83,8
2016-07-31 00:15;82,6
2016-07-31 00:30;88,45
2016-07-31 00:45;85,65
2016-07-31 01:00;86,75
2016-07-31 01:15;78,65
2016-07-31 01:30;78,7
2016-07-31 01:45;79,55
2016-07-31 02:00;77,95
2016-07-31 02:15;80,45
2016-07-31 02:30;78,05
2016-07-31 02:45;79,1
2016-07-31 03:00;78,55
2016-07-31 03:15;80,65
2016-07-31 03:30;76,4
2016-07-31 03:45;76,6
2016-07-31 04:00;76,3
2016-07-31 04:15;75,55
2016-07-31 04:30;76,25
2016-07-31 04:45;75,25
2016-07-31 05:00;75,8
2016-07-31 05:15;75,3
2016-07-31 05:30;76,3
2016-07-31 05:45;75,8
2016-07-31 06:00;75,05
2016-07-31 06:15;75,6
2016-07-31 06:30;72,05
2016-07-31 06:45;70,7
2016-07-31 07:00;67
2016-07-31 07:15;71,7
2016-07-31 07:30;72,4
2016-07-31 07:45;70,3
2016-07-31 08:00;72,55
2016-07-31 08:15;72,7
2016-07-31 08:30;75,1
2016-07-31 08:45;75,15
2016-07-31 09:00;76,85
2016-07-31 09:15;74,3
2016-07-31 09:30;76,8
2016-07-31 09:45;76,6
2016-07-31 10:00;76,7
2016-07-31 10:15;75,15
2016-07-31 10:30;76,7
2016-07-31 10:45;76,95
2016-07-31 11:00;75,2
2016-07-31 11:15;78,1
2016-07-31 11:30;78,15
2016-07-31 11:45;79,35
2016-07-31 12:00;79
2016-07-31 12:15;79,9
2016-07-31 12:30;79,35
2016-07-31 12:45;81,45
2016-07-31 13:00;80,7
2016-07-31 13:15;80,1
2016-07-31 13:30;82,25
2016-07-31 13:45;81,75
2016-07-31 14:00;82,6
2016-07-31 14:15;82,95
2016-07-31 14:30;82,35
2016-07-31 14:45;83,25
2016-07-31 15:00;81,35
2016-07-31 15:15;81,9
2016-07-31 15:30;82,05
2016-07-31 15:45;80,15
2016-07-31 16:00;86,6
2016-07-31 16:15;86,1
2016-07-31 16:30;85,5
2016-07-31 16:45;88,75
2016-07-31 17:00;87,6
2016-07-31 17:15;88,95
2016-07-31 17:30;90,55
2016-07-31 17:45;90,9
2016-07-31 18:00;92,05
2016-07-31 18:15;93,7
2016-07-31 18:30;92,15
2016-07-31 18:45;90,5
2016-07-31 19:00;92,6
2016-07-31 19:15;89,45
2016-07-31 19:30;88,4
2016-07-31 19:45;89,35
2016-07-31 20:00;87,1
2016-07-31 20:15;92,05
2016-07-31 20:30;92,3
2016-07-31 20:45;94,25
2016-07-31 21:00;91
2016-07-31 21:15;83,95
2016-07-31 21:30;85,55
2016-07-31 21:45;86,35
2016-07-31 22:00;84,9
2016-07-31 22:15;89,05
2016-07-31 22:30;87,15
2016-07-31 22:45;88,6
2016-07-31 23:00;85,9
2016-07-31 23:15;84,7
2016-07-31 23:30;85
2016-07-31 23:45;81,3

